[[{"header":{"parameterUnit":"m.s-1","parameterCategory":2,"la1":30.2991,"la2":30.254,"lo1":-89.0895,"lo2":-89.0444,"dy":0.0017,"dx":0.0017,"nx":28,"ny":28,"refTime":"2024-02-12T03:00:00:Z","depth":"0","parameterNumber":2,"parameterNumberName":"U-component_of_CURRENTS"},"data":[0,0,0,0,0,0,0,0,0,0,0,0,0,0,0,0,0,0,0,0,0,0,0,0,0,0,0,0,0,0,0,0,0,0,0,0,0,0,0,0,0,0,0,0,0,0,0,0,0,0,0,0,0,0,0,0,0,0,0.2271,0.2272,0,0.2306,0.2306,0.2306,0.2309,0.2309,0.2309,0.2309,0.2324,0.2325,0.2325,0,0,0,0,0,0,0,0,0,0,0,0,0,0.2218,0.2219,0.2271,0.2272,0.2272,0.2306,0.2306,0.2307,0.2309,0.2309,0.2309,0.2309,0.2324,0.2325,0.2325,0,0,0,0,0,0,0,0,0,0,0,0,0,0.2244,0.2219,0.2271,0.2279,0.228,0.2306,0.2306,0.2307,0.2309,0.2309,0.2309,0.2308,0.2324,0.2325,0.2326,0.2337,0,0,0.2328,0.2329,0,0,0,0,0,0,0,0,0.2243,0.2246,0.2277,0.2279,0.228,0.2305,0.2294,0.2317,0.2309,0.2296,0.2309,0.2308,0.2317,0.2319,0.2324,0.2338,0.2339,0.2328,0.2329,0.2329,0.233,0,0,0,0,0,0,0,0.2241,0.2244,0.2283,0.2278,0.228,0.2285,0.2288,0.2298,0.2306,0.2297,0.2298,0.2305,0.2318,0.2323,0.2324,0.2339,0.2328,0.2329,0.233,0.233,0.2391,0.2392,0,0,0,0,0,0,0.224,0.2243,0.2282,0.2284,0.2262,0.2286,0.229,0.2295,0.2307,0.2309,0.2305,0.2305,0.2321,0.2323,0.2325,0.236,0.2329,0.233,0.2331,0.2389,0.2391,0.2392,0,0,0,0,0,0,0.2239,0.2243,0.228,0.2266,0.2271,0.2288,0.2294,0.2296,0.2305,0.2313,0.2315,0.2313,0.2321,0.2323,0.2343,0.2359,0.2331,0.2331,0.2388,0.239,0.2391,0.2417,0,0,0,0,0,0,0.2237,0.2243,0.2247,0.2266,0.2272,0.2302,0.2295,0.2297,0.2311,0.2311,0.232,0.2321,0.2321,0.2342,0.2344,0.236,0.2332,0.2387,0.2389,0.2391,0.2415,0.2419,0.2423,0,0,0,0,0,0.2235,0.2243,0.2247,0.2252,0.2278,0.2303,0.2307,0.2316,0.2312,0.2321,0.2329,0.2321,0.2356,0.2344,0.2346,0.2362,0.2386,0.2388,0.2391,0.2413,0.2418,0.2423,0,0,0,0,0,0,0.2221,0.2245,0.225,0.2263,0.2285,0.2304,0.2314,0.232,0.2333,0.2332,0.2334,0.2336,0.2363,0.236,0.2346,0.2387,0.237,0.2373,0.2386,0.2391,0.2395,0.242,0.2333,0,0,0,0,0,0.2222,0.2233,0.2258,0.227,0.228,0.2298,0.2309,0.2318,0.2332,0.2338,0.2344,0.2355,0.2375,0.238,0.2396,0.2414,0.2428,0.2427,0.2431,0.2434,0.2457,0.2485,0.2494,0.24,0.24,0.24,0,0,0.2219,0.2234,0.224,0.2268,0.2283,0.2307,0.2303,0.2324,0.2348,0.2338,0.2366,0.2372,0.2385,0.2411,0.2421,0.2409,0.2469,0.2437,0.244,0.2461,0.2489,0.2498,0.2506,0.2401,0.2401,0.2401,0,0,0.2223,0.2235,0.2248,0.2269,0.2297,0.2314,0.2322,0.2346,0.236,0.2384,0.2391,0.2413,0.2425,0.2449,0.2459,0.2497,0.2494,0.2492,0.2527,0.2554,0.2562,0.257,0.2598,0.2607,0.2488,0.2489,0.2489,0,0.2221,0.2243,0.2256,0.2278,0.23,0.2319,0.2345,0.2367,0.2394,0.2415,0.2395,0.2444,0.2449,0.2501,0.2515,0.2508,0.252,0.2504,0.256,0.2567,0.2574,0.2601,0.2612,0.249,0.249,0.249,0.249,0,0.2238,0.2259,0.227,0.2306,0.233,0.2356,0.2391,0.2416,0.2426,0.2448,0.2493,0.2502,0.2534,0.2534,0.2535,0.2594,0.2586,0.2564,0.2546,0.2586,0.2611,0.2621,0.2492,0.2492,0.2491,0.2491,0,0,0.2226,0.2274,0.2278,0.2297,0.2349,0.2366,0.2418,0.247,0.2505,0.2523,0.2569,0.2601,0.2606,0.2622,0.2625,0.2647,0.2703,0.2629,0.2629,0.2655,0.2766,0.2782,0.2795,0.2684,0.2686,0.2687,0.2763,0,0.2239,0.2275,0.2304,0.2346,0.237,0.2411,0.2456,0.2503,0.254,0.2589,0.2616,0.2656,0.264,0.2653,0.2679,0.2706,0.2732,0.2685,0.2726,0.2728,0.2737,0.2808,0.282,0.2891,0.2773,0.2774,0.2775,0,0.2251,0.2274,0.2313,0.2366,0.238,0.2411,0.2485,0.253,0.2613,0.2641,0.2693,0.2714,0.2779,0.2739,0.2812,0.2781,0.2786,0.2792,0.2794,0.2814,0.2765,0.2833,0.2914,0.2921,0.2791,0.279,0.2789,0,0.2228,0.2281,0.231,0.2328,0.2392,0.2421,0.2462,0.2543,0.2597,0.2684,0.2725,0.2791,0.2832,0.2854,0.2883,0.2848,0.2952,0.2897,0.2919,0.2919,0.2944,0.2943,0.304,0.2947,0.2947,0.2947,0.2946,0,0.2234,0.2254,0.2297,0.2311,0.2356,0.2402,0.247,0.2525,0.2618,0.2688,0.275,0.2821,0.2862,0.2923,0.2922,0.2978,0.2987,0.296,0.2953,0.2952,0.2952,0.2969,0.2935,0.2949,0.2949,0.2948,0.2948,0,0.2209,0.2241,0.2271,0.2324,0.2348,0.2376,0.2475,0.2514,0.2613,0.271,0.2741,0.2868,0.2961,0.2998,0.3055,0.3041,0.3025,0.308,0.3083,0.3076,0.3084,0.305,0.2933,0.285,0.3119,0.312,0.3121,0,0.2201,0.2213,0.2265,0.2279,0.2305,0.2361,0.2398,0.2504,0.256,0.2739,0.2778,0.2917,0.3019,0.3137,0.3157,0.319,0.3078,0.3188,0.3125,0.3126,0.3082,0.2874,0.2796,0.3164,0.3165,0.3166,0.3166,0,0.218,0.2195,0.2212,0.2243,0.2273,0.232,0.2386,0.2438,0.2565,0.2667,0.2817,0.2924,0.3094,0.3181,0.3244,0.3249,0.3096,0.3207,0.3215,0.315,0.2924,0.2828,0.3066,0.3175,0.3174,0.3174,0.3173,0.3173,0.2154,0.2155,0.2172,0.2198,0.2226,0.2255,0.2278,0.2365,0.2468,0.2611,0.2771,0.2931,0.3169,0.3291,0.3258,0.3302,0.3146,0.3273,0.324,0.3032,0.293,0.3194,0.3285,0.3284,0.3284,0.3284,0.3284,0,0.2111,0.2112,0.2126,0.2142,0.2134,0.2183,0.2243,0.2261,0.2347,0.2547,0.269,0.2997,0.3157,0.3293,0.3446,0.3384,0.3155,0.3324,0.3072,0.2998,0.3289,0.3278,0.3365,0.3365,0.3365,0.3365,0.3365,0.3365,0.2086,0.2071,0.2076,0.2045,0.2052,0.2033,0.2052,0.2104,0.2228,0.2437,0.2637,0.2807,0.3188,0.3483,0.3549,0.3463,0.3214,0.3095,0.2993,0.3299,0.3292,0.3284,0.327,0.3354,0.3354,0.2621,0.2616,0.2612]},{"header":{"parameterUnit":"m.s-1","parameterCategory":2,"la1":30.2991,"la2":30.254,"lo1":-89.0895,"lo2":-89.0444,"dy":0.0017,"dx":0.0017,"nx":28,"ny":28,"refTime":"2024-02-12T03:00:00:Z","depth":"0","parameterNumber":3,"parameterNumberName":"V-component_of_CURRENTS"},"data":[0,0,0,0,0,0,0,0,0,0,0,0,0,0,0,0,0,0,0,0,0,0,0,0,0,0,0,0,0,0,0,0,0,0,0,0,0,0,0,0,0,0,0,0,0,0,0,0,0,0,0,0,0,0,0,0,0,0,0.0111,0.0111,0,0.0073,0.0073,0.0072,0.0036,0.0036,0.0035,0.0035,-0.0036,-0.0038,-0.0039,0,0,0,0,0,0,0,0,0,0,0,0,0,0.0097,0.0098,0.0111,0.0111,0.0111,0.0073,0.0073,0.0072,0.0036,0.0036,0.0035,0.0035,-0.0036,-0.0037,-0.0039,0,0,0,0,0,0,0,0,0,0,0,0,0,0.0085,0.0098,0.0111,0.0089,0.0087,0.0073,0.0073,0.0072,0.0036,0.0036,0.0035,0.0035,-0.0035,-0.0037,-0.004,-0.0045,0,0,-0.0047,-0.0048,0,0,0,0,0,0,0,0,0.0085,0.0085,0.0093,0.0091,0.0088,0.006,0.0042,0.0032,0.0036,0.0054,0.0035,0.0035,-0.0006,-0.001,-0.0018,-0.0049,-0.0052,-0.0047,-0.0049,-0.005,-0.005,0,0,0,0,0,0,0,0.0086,0.0086,0.0095,0.0093,0.009,0.0063,0.0061,0.0039,0.0025,0.0052,0.005,0.0049,-0.0007,-0.0016,-0.002,-0.0053,-0.0047,-0.0049,-0.0051,-0.0052,-0.0096,-0.0096,0,0,0,0,0,0,0.0098,0.0087,0.0096,0.0094,0.0088,0.0064,0.0061,0.0069,0.0026,0.002,0.0049,0.0047,-0.0012,-0.0017,-0.0023,-0.0024,-0.005,-0.0052,-0.0053,-0.0096,-0.0096,-0.0096,0,0,0,0,0,0,0.0098,0.0099,0.0097,0.009,0.0088,0.0065,0.0073,0.0068,0.0062,0.0024,0.0017,0.0048,-0.0012,-0.002,-0.0037,-0.0028,-0.0053,-0.0055,-0.0097,-0.0096,-0.0096,-0.0032,0,0,0,0,0,0,0.0098,0.01,0.0107,0.0091,0.0089,0.0099,0.0073,0.0068,0.0062,0.0059,0.0021,0.0014,-0.0013,-0.0033,-0.0039,-0.0031,-0.0057,-0.0097,-0.0096,-0.0096,-0.0034,-0.0029,-0.0025,0,0,0,0,0,0.0098,0.0116,0.0107,0.0108,0.01,0.0099,0.0096,0.0076,0.0063,0.0067,0.0039,0.0015,-0.0034,-0.0034,-0.0042,-0.0035,-0.0097,-0.0097,-0.0096,-0.0036,-0.003,-0.0025,0,0,0,0,0,0,0.0113,0.0114,0.0104,0.0121,0.0113,0.0094,0.0095,0.0082,0.0063,0.0058,0.0021,0.0012,-0.0001,-0.0026,-0.0025,-0.0047,-0.007,-0.0071,-0.0022,-0.0017,-0.0012,0.0006,-0.0059,0,0,0,0,0,0.012,0.0133,0.0125,0.0137,0.0136,0.0116,0.0111,0.01,0.0083,0.0074,0.0048,0.0019,-0.0004,-0.0016,-0.0041,-0.005,-0.008,-0.0052,-0.0047,-0.0043,-0.0033,-0.0077,-0.0075,-0.0094,-0.0094,-0.0094,0,0,0.0128,0.013,0.0136,0.014,0.0131,0.0141,0.0112,0.0113,0.0119,0.0069,0.0067,0.0035,-0.0003,-0.0014,-0.0022,-0.0034,-0.0052,-0.0042,-0.0038,-0.0031,-0.0076,-0.0074,-0.0073,-0.0093,-0.0093,-0.0093,0,0,0.0153,0.0153,0.0172,0.0173,0.0169,0.016,0.0164,0.015,0.0142,0.0135,0.01,0.0076,0.0043,0.0018,0.0001,0.0017,-0.0026,0.0007,0.0046,0.0004,0.0005,0.0006,-0.0023,-0.0025,0.0009,0.001,0.001,0,0.0159,0.0189,0.0176,0.0195,0.0202,0.0174,0.0197,0.0185,0.0167,0.0164,0.0143,0.0093,0.0059,0.0045,0.0049,0.0028,0.0001,0.003,0.0011,0.001,0.001,-0.002,-0.0023,0.0013,0.0012,0.0012,0.0012,0,0.0201,0.0222,0.0234,0.0251,0.0255,0.0271,0.0259,0.0258,0.0241,0.0224,0.0206,0.0156,0.0127,0.011,0.0084,0.007,0.0051,0.0022,-0.0001,0.0016,-0.0016,-0.0021,0.0017,0.0016,0.0015,0.0014,0,0,0.0222,0.0258,0.0262,0.0286,0.029,0.0302,0.0313,0.0318,0.0331,0.0291,0.0298,0.0246,0.0213,0.0192,0.015,0.0113,0.0086,0.0074,0.007,0.0052,0.0002,-0.001,-0.0017,0.0052,0.0051,0.005,-0.0017,0,0.0259,0.0315,0.0319,0.0368,0.0398,0.0383,0.0401,0.0397,0.0381,0.0378,0.0317,0.0303,0.0246,0.0234,0.0187,0.0113,0.0075,0.0108,-0.0017,-0.002,-0.0028,-0.0022,0.0009,-0.0049,-0.0022,-0.0023,-0.0024,0,0.0302,0.0337,0.0396,0.0444,0.0455,0.0476,0.0504,0.0518,0.0498,0.0484,0.0447,0.0396,0.0342,0.0288,0.0165,0.0188,0.0105,0.004,0.0035,0.0,-0.0041,-0.0064,-0.0059,-0.0209,-0.0031,-0.0031,-0.003,0,0.0338,0.0393,0.0447,0.0462,0.0504,0.0527,0.0549,0.0549,0.0578,0.0553,0.0558,0.0473,0.0443,0.0321,0.0183,0.0173,0.0045,0.0009,-0.0079,-0.008,-0.009,-0.0091,-0.0239,-0.0078,-0.0077,-0.0077,-0.0077,0,0.0384,0.0427,0.0471,0.0502,0.0573,0.0578,0.0645,0.065,0.0666,0.0715,0.0618,0.0629,0.0449,0.0352,0.0212,0.0058,0.0061,-0.0066,-0.0099,-0.0066,-0.0064,-0.0225,-0.0325,-0.008,-0.0079,-0.0079,-0.0078,0,0.0416,0.0444,0.0514,0.0571,0.0596,0.0647,0.0725,0.077,0.0771,0.0829,0.0827,0.0746,0.0626,0.0437,0.0248,0.0111,-0.0138,-0.0102,-0.0043,-0.0068,-0.029,-0.0386,-0.0566,-0.0666,-0.0209,-0.0209,-0.021,0,0.0438,0.0478,0.0569,0.0619,0.065,0.0728,0.0787,0.0823,0.0883,0.0915,0.0951,0.0851,0.0818,0.0524,0.0254,0.0003,-0.0159,-0.0139,-0.0159,-0.0294,-0.0428,-0.0485,-0.0561,-0.0146,-0.0146,-0.0146,-0.0146,0,0.0481,0.0513,0.0573,0.0684,0.0759,0.0856,0.0947,0.1016,0.1072,0.113,0.1191,0.1168,0.0884,0.0658,0.0293,0.0098,-0.0252,-0.0147,-0.031,-0.0408,-0.0458,-0.0571,-0.0105,-0.0146,-0.0146,-0.0146,-0.0146,-0.0146,0.051,0.0565,0.0652,0.0759,0.0854,0.0986,0.1092,0.1196,0.133,0.1464,0.1406,0.1455,0.1087,0.0598,0.0268,-0.0247,-0.0273,-0.0372,-0.0481,-0.0527,-0.062,-0.0145,-0.0213,-0.0214,-0.0214,-0.0214,-0.0215,0,0.0552,0.0622,0.0722,0.0862,0.0984,0.1028,0.1203,0.1335,0.1525,0.1667,0.1746,0.1678,0.117,0.0654,-0.0056,-0.0466,-0.0641,-0.0697,-0.0777,-0.0845,-0.0433,-0.0425,-0.0514,-0.0514,-0.0514,-0.0514,-0.0514,-0.0513,0.0577,0.0682,0.0744,0.0954,0.1058,0.1257,0.1378,0.1579,0.1747,0.2018,0.2146,0.2185,0.1885,0.0446,-0.0482,-0.0751,-0.1074,-0.1137,-0.1313,-0.1027,-0.1005,-0.0984,-0.0999,-0.1207,-0.1208,-0.1652,-0.1657,-0.166]}],[{"header":{"parameterUnit":"m.s-1","parameterCategory":2,"la1":30.2991,"la2":30.254,"lo1":-89.0895,"lo2":-89.0444,"dy":0.0017,"dx":0.0017,"nx":28,"ny":28,"refTime":"2024-02-12T03:00:00:Z","depth":"2","parameterNumber":2,"parameterNumberName":"U-component_of_CURRENTS"},"data":[0,0,0,0,0,0,0,0,0,0,0,0,0,0,0,0,0,0,0,0,0,0,0,0,0,0,0,0,0,0,0,0,0,0,0,0,0,0,0,0,0,0,0,0,0,0,0,0,0,0,0,0,0,0,0,0,0,0,0.2142,0.2142,0,0.2176,0.2176,0.2176,0.2183,0.2183,0.2183,0.2183,0.22,0.2201,0.2201,0,0,0,0,0,0,0,0,0,0,0,0,0,0.2091,0.2091,0.2142,0.2142,0.2143,0.2176,0.2176,0.2176,0.2183,0.2183,0.2183,0.2183,0.22,0.2201,0.2201,0,0,0,0,0,0,0,0,0,0,0,0,0,0.2116,0.2092,0.2141,0.2151,0.2153,0.2176,0.2176,0.2176,0.2183,0.2183,0.2183,0.2183,0.22,0.2201,0.2202,0.2209,0,0,0.2204,0.2204,0,0,0,0,0,0,0,0,0.2114,0.2117,0.2149,0.2151,0.2152,0.2177,0.2165,0.2187,0.2183,0.2169,0.2183,0.2182,0.2192,0.2194,0.2198,0.221,0.2211,0.2204,0.2205,0.2205,0.2205,0,0,0,0,0,0,0,0.2113,0.2116,0.2153,0.215,0.2152,0.2158,0.2161,0.2169,0.2179,0.2171,0.2172,0.2179,0.2193,0.2197,0.2198,0.2211,0.2204,0.2205,0.2205,0.2206,0.2264,0.2265,0,0,0,0,0,0,0.2112,0.2114,0.2152,0.2154,0.2135,0.2159,0.2162,0.2167,0.218,0.2182,0.2179,0.2179,0.2196,0.2197,0.2199,0.2236,0.2205,0.2206,0.2206,0.2263,0.2264,0.2265,0,0,0,0,0,0,0.2111,0.2115,0.2151,0.2137,0.2142,0.216,0.2166,0.2168,0.2179,0.2186,0.2188,0.2188,0.2196,0.2198,0.2218,0.2235,0.2206,0.2207,0.2261,0.2263,0.2264,0.2292,0,0,0,0,0,0,0.2109,0.2114,0.212,0.2137,0.2143,0.2172,0.2166,0.2169,0.2184,0.2185,0.2195,0.2196,0.2196,0.2217,0.2219,0.2236,0.2208,0.226,0.2262,0.2264,0.229,0.2294,0.2298,0,0,0,0,0,0.2107,0.2115,0.212,0.2125,0.2149,0.2173,0.2176,0.2187,0.2185,0.2195,0.2204,0.2196,0.2231,0.2219,0.2221,0.2238,0.2259,0.2261,0.2264,0.2288,0.2293,0.2298,0,0,0,0,0,0,0.2095,0.2117,0.2123,0.2136,0.2157,0.2175,0.2185,0.2192,0.2206,0.2207,0.2208,0.2211,0.2238,0.2235,0.2221,0.2262,0.2244,0.2247,0.2262,0.2267,0.2271,0.2295,0.2208,0,0,0,0,0,0.2096,0.2107,0.213,0.2142,0.2153,0.217,0.2181,0.2191,0.2206,0.2212,0.2219,0.223,0.2249,0.2255,0.2269,0.2287,0.23,0.2301,0.2305,0.2308,0.233,0.2358,0.2366,0.2273,0.2273,0.2273,0,0,0.2094,0.2109,0.2115,0.2141,0.2156,0.2179,0.2176,0.2198,0.2222,0.2212,0.2241,0.2248,0.2259,0.2284,0.2296,0.2283,0.2342,0.2311,0.2314,0.2335,0.2361,0.237,0.2378,0.2274,0.2274,0.2274,0,0,0.2099,0.2111,0.2123,0.2143,0.2172,0.2188,0.2197,0.222,0.2235,0.2259,0.2267,0.2289,0.2301,0.2323,0.2333,0.237,0.2368,0.2367,0.2403,0.2428,0.2436,0.2444,0.2471,0.248,0.2364,0.2364,0.2364,0,0.2097,0.2118,0.2132,0.2153,0.2174,0.2194,0.2218,0.224,0.2268,0.2289,0.2272,0.2319,0.2324,0.2374,0.2388,0.2381,0.2394,0.2379,0.2434,0.2441,0.2448,0.2475,0.2485,0.2365,0.2365,0.2365,0.2365,0,0.2114,0.2134,0.2145,0.218,0.2203,0.2229,0.2263,0.2288,0.2301,0.2323,0.2368,0.2377,0.2408,0.2409,0.241,0.2467,0.246,0.2438,0.242,0.2459,0.2485,0.2495,0.2368,0.2367,0.2366,0.2366,0,0,0.2103,0.2148,0.2153,0.2171,0.2222,0.2239,0.2289,0.234,0.2375,0.2394,0.244,0.2472,0.248,0.2494,0.2498,0.252,0.2576,0.2503,0.2504,0.2529,0.2638,0.265,0.2662,0.2558,0.2559,0.2561,0.2635,0,0.2116,0.215,0.2178,0.2218,0.2241,0.2281,0.2325,0.2372,0.2409,0.2458,0.2485,0.2526,0.2512,0.2527,0.2552,0.2578,0.2604,0.2559,0.2598,0.26,0.2604,0.2675,0.2463,0.2513,0.2645,0.2646,0.2648,0,0.2127,0.2149,0.2187,0.2237,0.2251,0.2281,0.2354,0.2398,0.2479,0.2509,0.2561,0.2583,0.2648,0.261,0.2683,0.2653,0.2659,0.2664,0.2666,0.268,0.2632,0.2496,0.2526,0.2664,0.2663,0.2662,0.2661,0,0.2107,0.2156,0.2184,0.2202,0.2263,0.2292,0.2333,0.2412,0.2466,0.2553,0.2594,0.2659,0.2702,0.2723,0.2753,0.2719,0.282,0.2767,0.2784,0.2784,0.2617,0.26,0.2815,0.2815,0.2815,0.2814,0.2814,0,0.2112,0.2132,0.2173,0.2187,0.2231,0.2276,0.2343,0.2397,0.2489,0.2559,0.2621,0.2689,0.2732,0.2791,0.2791,0.2843,0.2854,0.2824,0.2817,0.2621,0.2605,0.2741,0.2731,0.2817,0.2817,0.2816,0.2816,0,0.2088,0.2119,0.2148,0.22,0.2224,0.2253,0.235,0.2389,0.2487,0.2583,0.2615,0.2736,0.2826,0.2865,0.292,0.2904,0.2935,0.294,0.272,0.2688,0.2867,0.2858,0.2971,0.2972,0.2973,0.2974,0.2975,0,0.2081,0.2093,0.2144,0.2158,0.2184,0.2241,0.2277,0.2381,0.2435,0.261,0.2648,0.2784,0.2877,0.2988,0.2972,0.2995,0.3002,0.2807,0.2714,0.2908,0.2889,0.2878,0.2868,0.249,0.2487,0.2484,0.2482,0,0.206,0.2076,0.2093,0.2125,0.2155,0.2199,0.2265,0.2314,0.244,0.2535,0.2677,0.2775,0.2906,0.2867,0.2914,0.2881,0.2789,0.2759,0.3014,0.2503,0.2466,0.2444,0.2447,0.2459,0.2461,0.2463,0.2464,0.2465,0.2036,0.2037,0.2055,0.2081,0.2109,0.2135,0.2157,0.2229,0.2322,0.2424,0.2587,0.2649,0.2718,0.27,0.2634,0.2566,0.275,0.2607,0.261,0.2616,0.2567,0.2537,0.2532,0.2535,0.2537,0.2539,0.2541,0,0.1988,0.1996,0.201,0.2025,0.2008,0.2067,0.2122,0.2105,0.2167,0.2292,0.2392,0.2255,0.2287,0.2331,0.2217,0.2246,0.2146,0.2139,0.1984,0.2014,0.2039,0.1952,0.1758,0.1755,0.1752,0.1749,0,0,0.1961,0.1943,0.1947,0.1912,0.1927,0.189,0.1906,0.1897,0.1949,0.1957,0.1985,0.2171,0.2301,0.1988,0.1976,0.1853,0.1896,0.1774,0.2418,0.2268,0.2287,0.2347,0.2255,0,0,0,0,0]},{"header":{"parameterUnit":"m.s-1","parameterCategory":2,"la1":30.2991,"la2":30.254,"lo1":-89.0895,"lo2":-89.0444,"dy":0.0017,"dx":0.0017,"nx":28,"ny":28,"refTime":"2024-02-12T03:00:00:Z","depth":"2","parameterNumber":3,"parameterNumberName":"V-component_of_CURRENTS"},"data":[0,0,0,0,0,0,0,0,0,0,0,0,0,0,0,0,0,0,0,0,0,0,0,0,0,0,0,0,0,0,0,0,0,0,0,0,0,0,0,0,0,0,0,0,0,0,0,0,0,0,0,0,0,0,0,0,0,0,0.0127,0.0126,0,0.0089,0.0089,0.0088,0.0052,0.0052,0.0052,0.0051,-0.0019,-0.0021,-0.0022,0,0,0,0,0,0,0,0,0,0,0,0,0,0.0113,0.0114,0.0127,0.0126,0.0126,0.0089,0.0089,0.0088,0.0052,0.0052,0.0051,0.0051,-0.0018,-0.002,-0.0022,0,0,0,0,0,0,0,0,0,0,0,0,0,0.01,0.0114,0.0127,0.0105,0.0103,0.0089,0.0089,0.0088,0.0052,0.0052,0.0051,0.0051,-0.0018,-0.002,-0.0022,-0.0027,0,0,-0.003,-0.0031,0,0,0,0,0,0,0,0,0.0101,0.0101,0.0108,0.0106,0.0104,0.0076,0.0058,0.0048,0.0052,0.007,0.0051,0.0051,0.0011,0.0006,-0.0001,-0.0031,-0.0034,-0.003,-0.0031,-0.0032,-0.0033,0,0,0,0,0,0,0,0.0102,0.0102,0.011,0.0108,0.0105,0.0078,0.0076,0.0056,0.0042,0.0068,0.0066,0.0064,0.0009,0.0001,-0.0003,-0.0035,-0.003,-0.0032,-0.0033,-0.0034,-0.0077,-0.0077,0,0,0,0,0,0,0.0113,0.0103,0.0111,0.0109,0.0103,0.0079,0.0077,0.0084,0.0043,0.0037,0.0065,0.0063,0.0005,-0.0,-0.0006,-0.0007,-0.0032,-0.0035,-0.0036,-0.0078,-0.0077,-0.0077,0,0,0,0,0,0,0.0113,0.0115,0.0113,0.0106,0.0104,0.0081,0.0089,0.0084,0.0078,0.0041,0.0034,0.0064,0.0005,-0.0003,-0.0019,-0.001,-0.0036,-0.0038,-0.0078,-0.0077,-0.0077,-0.0014,0,0,0,0,0,0,0.0113,0.0115,0.0122,0.0107,0.0105,0.0114,0.0089,0.0084,0.0078,0.0075,0.0038,0.003,0.0004,-0.0016,-0.0022,-0.0014,-0.004,-0.0078,-0.0078,-0.0077,-0.0016,-0.0011,-0.0007,0,0,0,0,0,0.0113,0.0131,0.0123,0.0123,0.0116,0.0115,0.0112,0.0091,0.0079,0.0082,0.0055,0.0032,-0.0017,-0.0017,-0.0024,-0.0017,-0.0078,-0.0078,-0.0077,-0.0018,-0.0012,-0.0007,0,0,0,0,0,0,0.0128,0.0129,0.0119,0.0136,0.0128,0.011,0.0111,0.0097,0.0079,0.0074,0.0037,0.0028,0.0016,-0.0009,-0.0008,-0.0029,-0.0052,-0.0053,-0.0005,0.0,0.0005,0.0023,-0.0042,0,0,0,0,0,0.0135,0.0148,0.014,0.0152,0.0151,0.0131,0.0127,0.0115,0.0098,0.009,0.0064,0.0035,0.0013,0.0001,-0.0023,-0.0032,-0.0061,-0.0033,-0.0029,-0.0024,-0.0015,-0.0058,-0.0057,-0.0075,-0.0075,-0.0075,0,0,0.0143,0.0145,0.0151,0.0155,0.0145,0.0156,0.0127,0.0128,0.0134,0.0085,0.0083,0.0051,0.0014,0.0003,-0.0004,-0.0016,-0.0034,-0.0024,-0.002,-0.0013,-0.0057,-0.0056,-0.0054,-0.0074,-0.0075,-0.0075,0,0,0.0168,0.0168,0.0187,0.0187,0.0183,0.0174,0.0179,0.0165,0.0156,0.0149,0.0115,0.0091,0.0059,0.0035,0.0018,0.0034,-0.0008,0.0025,0.0063,0.0021,0.0023,0.0023,-0.0006,-0.0008,0.0027,0.0027,0.0027,0,0.0174,0.0203,0.0191,0.0209,0.0217,0.0188,0.0211,0.0199,0.0181,0.0178,0.0157,0.0108,0.0075,0.0062,0.0066,0.0045,0.0018,0.0047,0.0028,0.0028,0.0028,-0.0002,-0.0006,0.003,0.003,0.003,0.0029,0,0.0215,0.0236,0.0248,0.0265,0.0269,0.0285,0.0273,0.0272,0.0255,0.0239,0.022,0.0171,0.0143,0.0126,0.0101,0.0087,0.0067,0.0039,0.0017,0.0033,0.0001,-0.0004,0.0035,0.0034,0.0033,0.0032,0,0,0.0236,0.0272,0.0276,0.03,0.0304,0.0316,0.0327,0.0332,0.0345,0.0305,0.0312,0.0261,0.0228,0.0207,0.0166,0.013,0.0102,0.0091,0.0087,0.0068,0.0018,0.0006,-0.0001,0.0068,0.0068,0.0067,-0.0001,0,0.0273,0.0329,0.0333,0.0381,0.0411,0.0397,0.0415,0.0411,0.0395,0.0392,0.0331,0.0317,0.0261,0.0249,0.0203,0.0129,0.0092,0.0124,-0.0,-0.0003,-0.0012,-0.0006,0.0018,-0.0041,-0.0006,-0.0007,-0.0008,0,0.0316,0.035,0.0409,0.0457,0.0468,0.0489,0.0516,0.053,0.0511,0.0497,0.046,0.0409,0.0355,0.0302,0.018,0.0203,0.0121,0.0057,0.0052,0.0016,-0.0025,-0.0055,-0.0052,-0.0016,-0.0015,-0.0015,-0.0014,0,0.0351,0.0406,0.046,0.0475,0.0517,0.054,0.0561,0.0562,0.0589,0.0564,0.0569,0.0485,0.0454,0.0334,0.0196,0.0187,0.0059,0.0025,-0.0063,-0.0065,-0.008,-0.0082,-0.0061,-0.0061,-0.0061,-0.0061,-0.0061,0,0.0397,0.0439,0.0483,0.0515,0.0585,0.059,0.0656,0.0661,0.0676,0.0724,0.0628,0.0637,0.046,0.0363,0.0224,0.0071,0.0074,-0.0051,-0.0084,-0.0057,-0.0056,-0.0064,-0.0064,-0.0063,-0.0063,-0.0062,-0.0062,0,0.0429,0.0457,0.0526,0.0583,0.0608,0.0658,0.0735,0.0779,0.0779,0.0836,0.0833,0.0751,0.063,0.0443,0.0256,0.0122,-0.0033,-0.0089,-0.0038,-0.0064,-0.0135,-0.0131,-0.0193,-0.0194,-0.0195,-0.0195,-0.0196,0,0.0451,0.0491,0.058,0.063,0.0661,0.0738,0.0796,0.0832,0.089,0.0918,0.0952,0.0851,0.0813,0.0521,0.0255,0.0007,-0.0029,-0.0135,-0.0154,-0.0123,-0.0149,-0.0143,-0.0138,-0.0149,-0.015,-0.015,-0.015,0,0.0493,0.0525,0.0585,0.0694,0.0768,0.0864,0.0953,0.102,0.1074,0.1126,0.1181,0.1153,0.087,0.0623,0.0262,0.009,-0.0098,-0.0146,-0.0136,-0.0115,-0.0087,-0.0111,-0.0106,-0.0151,-0.0151,-0.0151,-0.0151,-0.0151,0.0523,0.0577,0.0663,0.0768,0.0862,0.0991,0.1095,0.1188,0.1314,0.1414,0.1364,0.1335,0.1017,0.0574,0.0243,-0.0109,-0.0087,-0.0201,-0.0199,-0.0197,-0.0175,-0.015,-0.0221,-0.0221,-0.0222,-0.0222,-0.0222,0,0.0564,0.0633,0.0732,0.0869,0.0988,0.1032,0.1203,0.1312,0.1483,0.1552,0.1604,0.1327,0.1015,0.0642,0.0127,-0.0175,-0.0205,-0.0274,-0.0242,-0.0237,-0.0234,-0.0214,-0.0271,-0.0272,-0.0273,-0.0274,0,0,0.0589,0.0692,0.0753,0.0957,0.1059,0.1248,0.1365,0.1521,0.1623,0.1724,0.171,0.1612,0.1153,0.0774,0.0341,0.004,-0.0023,-0.0021,0.0053,0.0149,0.0155,-0.0157,-0.0116,0,0,0,0,0]}],[{"header":{"parameterUnit":"m.s-1","parameterCategory":2,"la1":30.2991,"la2":30.254,"lo1":-89.0895,"lo2":-89.0444,"dy":0.0017,"dx":0.0017,"nx":28,"ny":28,"refTime":"2024-02-12T03:00:00:Z","depth":"4","parameterNumber":2,"parameterNumberName":"U-component_of_CURRENTS"},"data":[0,0,0,0,0,0,0,0,0,0,0,0,0,0,0,0,0,0,0,0,0,0,0,0,0,0,0,0,0,0,0,0,0,0,0,0,0,0,0,0,0,0,0,0,0,0,0,0,0,0,0,0,0,0,0,0,0,0,0.1234,0.1235,0,0.1305,0.1306,0.1306,0.1361,0.1362,0.1362,0.1363,0.1444,0.1445,0.1447,0,0,0,0,0,0,0,0,0,0,0,0,0,0.1146,0.1148,0.1234,0.1235,0.1236,0.1305,0.1306,0.1307,0.1361,0.1362,0.1362,0.1363,0.1443,0.1445,0.1447,0,0,0,0,0,0,0,0,0,0,0,0,0,0.1196,0.1148,0.1234,0.1273,0.1277,0.1305,0.1306,0.1307,0.1361,0.1362,0.1363,0.1364,0.1443,0.1445,0.1447,0.1441,0,0,0.1454,0.1455,0,0,0,0,0,0,0,0,0.1193,0.1199,0.1266,0.127,0.1275,0.1327,0.1305,0.1353,0.136,0.1327,0.1363,0.1364,0.1406,0.1411,0.142,0.1445,0.1449,0.1454,0.1456,0.1457,0.1457,0,0,0,0,0,0,0,0.119,0.1196,0.126,0.1267,0.1273,0.1287,0.1295,0.1314,0.1359,0.133,0.1335,0.1345,0.1408,0.1417,0.1422,0.145,0.1454,0.1456,0.1458,0.1459,0.1569,0.157,0,0,0,0,0,0,0.1183,0.1193,0.1258,0.1263,0.1238,0.1288,0.1297,0.1308,0.1359,0.1368,0.1344,0.1347,0.1413,0.1419,0.1425,0.1507,0.1457,0.1459,0.146,0.1567,0.1569,0.1571,0,0,0,0,0,0,0.1181,0.1188,0.1255,0.1231,0.1241,0.1289,0.13,0.1309,0.1349,0.1369,0.1379,0.1379,0.1414,0.1422,0.1473,0.1507,0.146,0.1462,0.1565,0.1568,0.157,0.1614,0,0,0,0,0,0,0.1178,0.1187,0.1205,0.123,0.1242,0.1291,0.13,0.1309,0.1352,0.1358,0.1402,0.1409,0.1415,0.1469,0.1475,0.1509,0.1464,0.1563,0.1566,0.1569,0.1611,0.1618,0.1624,0,0,0,0,0,0.1175,0.1191,0.1206,0.1215,0.1261,0.1292,0.1299,0.1335,0.1353,0.1374,0.1409,0.1409,0.1492,0.1472,0.1479,0.1514,0.1562,0.1566,0.1569,0.1608,0.1617,0.1624,0,0,0,0,0,0,0.1165,0.1199,0.1216,0.1243,0.1275,0.1302,0.133,0.135,0.1394,0.141,0.1427,0.1436,0.1495,0.1498,0.1476,0.1555,0.1528,0.1533,0.1555,0.1563,0.157,0.1584,0.1466,0,0,0,0,0,0.117,0.1194,0.1225,0.1252,0.127,0.1305,0.1327,0.1352,0.1387,0.1408,0.144,0.1475,0.1508,0.1531,0.1557,0.1598,0.1605,0.1626,0.1633,0.1638,0.1655,0.1686,0.1696,0.1582,0.1582,0.1582,0,0,0.1174,0.1197,0.1212,0.1252,0.1281,0.1313,0.1322,0.1365,0.1403,0.1409,0.1478,0.1501,0.1524,0.1574,0.16,0.1585,0.1675,0.1642,0.1647,0.1661,0.169,0.1701,0.1711,0.1585,0.1584,0.1584,0,0,0.1185,0.1216,0.1239,0.1267,0.1316,0.1338,0.1357,0.1402,0.1438,0.1492,0.1513,0.1561,0.1606,0.1635,0.1651,0.1709,0.1709,0.172,0.1766,0.1795,0.1804,0.1813,0.1836,0.1846,0.1722,0.1722,0.1722,0,0.1193,0.1224,0.1251,0.1281,0.1313,0.1353,0.1388,0.1425,0.1485,0.152,0.1523,0.1614,0.1635,0.1699,0.1726,0.1725,0.174,0.1731,0.1803,0.1811,0.1819,0.1841,0.1852,0.1725,0.1724,0.1724,0.1724,0,0.1213,0.1251,0.1269,0.1321,0.1357,0.1396,0.1446,0.1494,0.1539,0.1575,0.1656,0.1686,0.1742,0.1755,0.1762,0.1836,0.1828,0.1806,0.178,0.1833,0.1853,0.1863,0.1728,0.1727,0.1727,0.1726,0,0,0.1198,0.127,0.1281,0.1311,0.1385,0.1411,0.1484,0.1553,0.1607,0.1666,0.1735,0.1798,0.1825,0.1847,0.1864,0.1894,0.1962,0.1884,0.1885,0.1903,0.2033,0.1915,0.1915,0.1954,0.1956,0.1958,0.2023,0,0.1212,0.1265,0.1306,0.1369,0.1402,0.1465,0.1525,0.1596,0.166,0.1736,0.1787,0.1858,0.1856,0.1894,0.1928,0.1962,0.1993,0.1947,0.1983,0.1984,0.187,0.1924,0.1964,0.2031,0.2033,0.2035,0.2036,0,0.1218,0.1255,0.1316,0.1395,0.1417,0.1468,0.1573,0.1634,0.1745,0.1798,0.1879,0.192,0.2007,0.198,0.2067,0.2041,0.2052,0.2059,0.2061,0.1945,0.1886,0.1968,0.2054,0.2053,0.2051,0.205,0.2049,0,0.118,0.1261,0.1311,0.134,0.1434,0.1488,0.1552,0.1661,0.1729,0.1854,0.1913,0.2002,0.2066,0.2098,0.2136,0.2112,0.2208,0.2164,0.2066,0.2058,0.2123,0.2113,0.2215,0.2215,0.2215,0.2214,0.2214,0,0.1167,0.1208,0.1303,0.1329,0.14,0.1477,0.1575,0.1651,0.1774,0.1855,0.1952,0.2017,0.2102,0.2163,0.217,0.2159,0.2237,0.2091,0.2072,0.214,0.2131,0.213,0.2119,0.2217,0.2216,0.2216,0.2215,0,0.1116,0.118,0.1238,0.1345,0.1386,0.1441,0.1586,0.1643,0.1775,0.1885,0.1932,0.2064,0.2142,0.2201,0.2262,0.2195,0.2195,0.2167,0.2258,0.2239,0.2016,0.2007,0.2056,0.2052,0.205,0.2047,0.2045,0,0.1091,0.1118,0.1235,0.1274,0.1331,0.143,0.1491,0.1634,0.1699,0.1892,0.1926,0.2063,0.2132,0.2127,0.2193,0.22,0.2168,0.2145,0.2061,0.2026,0.2003,0.1998,0.1994,0.204,0.2039,0.2039,0.2038,0,0.1039,0.1094,0.1139,0.1221,0.1293,0.1363,0.1468,0.1509,0.167,0.1803,0.188,0.1928,0.2015,0.2055,0.2084,0.2078,0.2144,0.2113,0.2117,0.2039,0.2008,0.1986,0.1985,0.2028,0.2029,0.203,0.2031,0,0.1,0.1017,0.1085,0.115,0.1228,0.1269,0.1341,0.1418,0.1505,0.1711,0.1734,0.1875,0.2001,0.1994,0.202,0.2013,0.1968,0.1876,0.1892,0.1904,0.1823,0.1759,0.17,0,0,0,0,0,0.0951,0.0959,0.1007,0.1065,0.1135,0.1186,0.1304,0.1378,0.1537,0.1546,0.164,0.1712,0.1769,0.1839,0.18,0.1946,0.197,0.189,0.1871,0.1971,0.1983,0.19,0,0,0,0,0,0,0.0914,0.095,0.0971,0.0978,0.1003,0.1069,0.1141,0.125,0.1267,0.1434,0.1475,0.1597,0.1677,0.1774,0.1764,0.1785,0.1733,0.198,0.1975,0.1964,0.1975,0.1984,0.1904,0,0,0,0,0]},{"header":{"parameterUnit":"m.s-1","parameterCategory":2,"la1":30.2991,"la2":30.254,"lo1":-89.0895,"lo2":-89.0444,"dy":0.0017,"dx":0.0017,"nx":28,"ny":28,"refTime":"2024-02-12T03:00:00:Z","depth":"4","parameterNumber":3,"parameterNumberName":"V-component_of_CURRENTS"},"data":[0,0,0,0,0,0,0,0,0,0,0,0,0,0,0,0,0,0,0,0,0,0,0,0,0,0,0,0,0,0,0,0,0,0,0,0,0,0,0,0,0,0,0,0,0,0,0,0,0,0,0,0,0,0,0,0,0,0,0.0164,0.0164,0,0.0138,0.0137,0.0137,0.0113,0.0113,0.0113,0.0112,0.0059,0.0058,0.0057,0,0,0,0,0,0,0,0,0,0,0,0,0,0.0156,0.0156,0.0164,0.0164,0.0163,0.0138,0.0137,0.0137,0.0113,0.0113,0.0112,0.0112,0.0059,0.0058,0.0057,0,0,0,0,0,0,0,0,0,0,0,0,0,0.0147,0.0157,0.0164,0.0149,0.0147,0.0138,0.0137,0.0137,0.0113,0.0113,0.0112,0.0112,0.006,0.0058,0.0056,0.0052,0,0,0.0051,0.005,0,0,0,0,0,0,0,0,0.0148,0.0147,0.0151,0.015,0.0148,0.0129,0.0115,0.0107,0.0113,0.0125,0.0112,0.0112,0.0081,0.0077,0.0072,0.005,0.0048,0.0051,0.005,0.0049,0.0048,0,0,0,0,0,0,0,0.0148,0.0148,0.0153,0.0151,0.0149,0.0131,0.0129,0.0113,0.0104,0.0124,0.0123,0.0121,0.0079,0.0074,0.0071,0.0047,0.0051,0.0049,0.0048,0.0047,0.0013,0.0013,0,0,0,0,0,0,0.0155,0.0149,0.0154,0.0152,0.0148,0.0131,0.013,0.0135,0.0105,0.0101,0.0121,0.012,0.0077,0.0073,0.0069,0.0069,0.0049,0.0047,0.0046,0.0013,0.0013,0.0013,0,0,0,0,0,0,0.0155,0.0156,0.0155,0.015,0.0148,0.0132,0.0138,0.0134,0.0131,0.0103,0.0098,0.0122,0.0077,0.0071,0.0059,0.0067,0.0046,0.0045,0.0013,0.0013,0.0013,0.0065,0,0,0,0,0,0,0.0155,0.0157,0.0162,0.0151,0.0149,0.0156,0.0138,0.0134,0.0131,0.0129,0.0102,0.0096,0.0076,0.0062,0.0057,0.0064,0.0043,0.0013,0.0013,0.0013,0.0063,0.0067,0.0071,0,0,0,0,0,0.0155,0.0169,0.0163,0.0163,0.0158,0.0157,0.0155,0.014,0.0131,0.0135,0.0115,0.0097,0.006,0.0061,0.0055,0.0061,0.0012,0.0013,0.0013,0.0062,0.0066,0.0071,0,0,0,0,0,0,0.0168,0.0168,0.016,0.0173,0.0167,0.0153,0.0155,0.0145,0.0133,0.013,0.0101,0.0095,0.0086,0.0066,0.0067,0.0051,0.0033,0.0032,0.0071,0.0076,0.0079,0.0095,0.0042,0,0,0,0,0,0.0174,0.0184,0.0176,0.0185,0.0185,0.017,0.0167,0.0159,0.0147,0.0141,0.0122,0.01,0.0083,0.0074,0.0056,0.0049,0.0023,0.0048,0.0052,0.0055,0.0064,0.0025,0.0026,0.0015,0.0015,0.0015,0,0,0.018,0.0181,0.0186,0.0188,0.0182,0.019,0.0168,0.017,0.0176,0.0137,0.0138,0.0113,0.0084,0.0076,0.007,0.0061,0.0045,0.0056,0.0059,0.0066,0.0025,0.0026,0.0027,0.0015,0.0015,0.0015,0,0,0.0201,0.0201,0.0216,0.0216,0.0212,0.0206,0.0209,0.0199,0.0194,0.019,0.0163,0.0145,0.0121,0.0102,0.0089,0.0101,0.0065,0.0093,0.0126,0.0088,0.0088,0.0089,0.006,0.0057,0.0095,0.0096,0.0096,0,0.0207,0.0229,0.0219,0.0233,0.0239,0.0218,0.0236,0.0228,0.0215,0.0214,0.0197,0.016,0.0134,0.0124,0.0128,0.011,0.0085,0.0114,0.0093,0.0093,0.0092,0.0062,0.0059,0.0098,0.0098,0.0098,0.0097,0,0.0239,0.0257,0.0266,0.0279,0.0283,0.0296,0.0287,0.0288,0.0276,0.0264,0.025,0.0212,0.019,0.0176,0.0156,0.0143,0.0125,0.0102,0.0085,0.0097,0.0064,0.0059,0.0102,0.0101,0.01,0.0099,0,0,0.0255,0.0285,0.0288,0.0308,0.0312,0.0322,0.0333,0.0338,0.0349,0.032,0.0326,0.0287,0.026,0.0243,0.021,0.0178,0.015,0.0145,0.0142,0.0122,0.0071,0.0061,0.0055,0.0121,0.0121,0.012,0.0051,0,0.0284,0.0329,0.0333,0.0374,0.0398,0.0389,0.0405,0.0403,0.0391,0.0389,0.0341,0.0332,0.0287,0.0279,0.0238,0.0174,0.014,0.0171,0.0058,0.0055,0.0049,0.005,0.0118,0.0048,0.0047,0.0046,0.0045,0,0.0316,0.0345,0.0394,0.0436,0.0445,0.0465,0.049,0.0503,0.0488,0.0477,0.0447,0.0406,0.0362,0.0319,0.0211,0.0233,0.0161,0.0105,0.01,0.0072,0.0036,0.0031,0.0036,0.0037,0.0037,0.0038,0.0039,0,0.0342,0.0389,0.0435,0.0447,0.0485,0.0508,0.0529,0.0531,0.0553,0.0534,0.0537,0.0467,0.044,0.0338,0.0218,0.0214,0.0095,0.0069,-0.0008,-0.0009,-0.0003,-0.0002,-0.0008,-0.0008,-0.0008,-0.0007,-0.0007,0,0.0374,0.0411,0.0455,0.048,0.0542,0.055,0.0607,0.0613,0.0626,0.0657,0.0588,0.0583,0.0442,0.0354,0.0238,0.0103,0.0104,0.0002,-0.0028,0.0021,0.0025,-0.0006,-0.0005,-0.001,-0.0009,-0.0009,-0.0009,0,0.0393,0.042,0.048,0.0534,0.0558,0.0603,0.0673,0.0707,0.0712,0.0748,0.0746,0.067,0.0556,0.0407,0.0241,0.0138,0.0005,-0.0045,0.003,0.0004,-0.0078,-0.0073,-0.0134,-0.0135,-0.0136,-0.0136,-0.0137,0,0.0407,0.044,0.0523,0.0565,0.0595,0.0665,0.0715,0.075,0.0789,0.0801,0.0817,0.0724,0.0653,0.0421,0.0251,0.0027,-0.001,-0.0082,-0.009,-0.0068,-0.0091,-0.0085,-0.008,-0.0138,-0.0138,-0.0139,-0.0139,0,0.0433,0.0464,0.0514,0.0606,0.067,0.075,0.0823,0.0859,0.0899,0.09,0.0881,0.0759,0.0629,0.0433,0.0257,0.0093,-0.0038,-0.0092,-0.0091,-0.0098,-0.0074,-0.0095,-0.0089,-0.0141,-0.0141,-0.0141,-0.0141,0,0.0452,0.0493,0.0563,0.0642,0.073,0.0815,0.0852,0.0901,0.0942,0.0949,0.0939,0.0798,0.0715,0.0467,0.0305,0.0142,0.0094,0.0034,0.0027,0.0027,0.0086,0.0142,0.0119,0,0,0,0,0,0.0466,0.0516,0.0594,0.0689,0.0776,0.0834,0.0917,0.0943,0.0978,0.0976,0.0965,0.0845,0.0609,0.0502,0.0339,0.027,0.0052,0.0071,-0.0024,-0.0157,-0.0153,-0.0114,0,0,0,0,0,0,0.0478,0.0549,0.0594,0.0714,0.0784,0.0889,0.0948,0.097,0.097,0.0974,0.0853,0.0796,0.0565,0.0708,0.0335,0.0284,0.0198,-0.0039,-0.0043,-0.0158,-0.0155,-0.0153,-0.0111,0,0,0,0,0]}]]